Flag for Germany Weather past 2 weeks in Sundern (Sauerland), North Rhine-Westphalia, Germany

Now
43 °F

Partly sunny.


Feels Like: 35 °F
Forecast: 33 / 42 °F
Wind: 17 mph from Southwest

Location: Dortmund / Wickede

Current Time: Mar 1, 2015 at 9:46:00 AM

Latest Report: Mar 1, 2015 at 9:20 AM


Visibility: N/A

Pressure: 29.56 "Hg

Humidity: 81%

Dew point: 37 °F

Location of Sundern (Sauerland)Location

Historic Weather in Sundern (Sauerland) — Graph

°F

Sundern (Sauerland) temperature yesterday

Maximum temperature yesterday: 45 °F (at 1:20 PM)
Minimum temperature yesterday: 30 °F (at 5:20 AM)
Average temperature yesterday: 39 °F

Past Weeks' High & Low Weather Summary

 TemperatureHumidityPressure
High54 °F (Feb 14, 1:20 PM)100% (Feb 18, 10:20 AM)30.74 "Hg (Feb 18, 10:20 AM)
Low27 °F (Feb 16, 5:50 AM)42% (Feb 28, 1:50 PM)29.33 "Hg (Feb 21, 5:20 AM)
Average39 °F76%29.96 "Hg
* Reported Feb 14 8:20 AM — Mar 1 8:20 AM, Sundern (Sauerland), Weather by CustomWeather, © 2015

Note: Actual official high and low records may vary slightly from our data, if they occured in-between our weather recording intervals... More about our weather records

Advertising

Sundern (Sauerland) weather history for previous 24 hours

 ConditionsComfort  
Time TempWeatherWind HumidityBarometerVisibility
8:20 AM
Sun, Mar 1
41 °FDrizzle. Partly sunny.21 mph87%29.53 "Hg4 mi
7:50 AM41 °FDrizzle. Partly sunny.23 mph81%29.53 "HgN/A
7:20 AM41 °FPartly sunny.24 mph81%29.53 "HgN/A
6:50 AM41 °FLight rain. Passing clouds.22 mph81%29.53 "HgN/A
6:20 AM39 °FLight rain. Passing clouds.22 mph87%29.53 "HgN/A
5:50 AM39 °FLight rain. Passing clouds.21 mph81%29.56 "HgN/A
5:20 AM39 °FPassing clouds.24 mph75%29.56 "HgN/A
10:50 PM
Sat, Feb 28
41 °FClear.17 mph53%29.80 "Hg10 mi
10:20 PM41 °FClear.18 mph53%29.83 "Hg10 mi
9:50 PM41 °FClear.21 mph53%29.83 "Hg10 mi
9:20 PM41 °FClear.16 mph53%29.86 "Hg10 mi
8:50 PM41 °FClear.16 mph53%29.89 "Hg10 mi
8:20 PM41 °FClear.14 mph53%29.89 "Hg10 mi
7:50 PM41 °FClear.14 mph53%29.92 "Hg10 mi
7:20 PM41 °FClear.12 mph53%29.92 "Hg10 mi
6:50 PM41 °FClear.12 mph53%29.92 "Hg10 mi
6:20 PM41 °FPassing clouds.12 mph53%29.92 "HgN/A
5:50 PM43 °FSunny.10 mph49%29.95 "Hg10 mi
5:20 PM43 °FSunny.15 mph53%29.95 "Hg10 mi
4:50 PM45 °FSunny.14 mph46%29.95 "Hg10 mi
4:20 PM45 °FPassing clouds.15 mph46%29.98 "HgN/A
3:50 PM45 °FPassing clouds.14 mph46%29.98 "HgN/A
3:20 PM45 °FPassing clouds.13 mph42%30.01 "HgN/A
2:50 PM45 °FPassing clouds.14 mph42%30.01 "HgN/A
2:20 PM45 °FSunny.13 mph46%30.04 "Hg10 mi
1:50 PM45 °FSunny.16 mph42%30.04 "Hg10 mi
1:20 PM45 °FSunny.15 mph46%30.04 "Hg10 mi
12:50 PM43 °FSunny.15 mph53%30.07 "Hg10 mi
12:20 PM41 °FPassing clouds.15 mph57%30.07 "HgN/A
11:50 AM41 °FSunny.16 mph57%30.07 "Hg10 mi
11:20 AM41 °FSunny.15 mph66%30.09 "Hg10 mi
10:50 AM39 °FSunny.14 mph65%30.09 "Hg10 mi
10:20 AM37 °FSunny.14 mph75%30.09 "Hg10 mi
9:50 AM36 °FSunny.13 mph81%30.12 "Hg10 mi
9:20 AM36 °FSunny.12 mph81%30.12 "Hg10 mi
Weather by CustomWeather, © 2015

See weather overviewHow to use our weather pages